When you browse on this site, cookies collect data to enhance your experience and personalize the content and advertising you see.
Visit our Privacy Policy to learn more. By continuing to use the site, you agree to this use of cookies and data.
  • In Germany
  • List of Countries
  • For 7 days
  • Water Temperature
  • Satellite Maps
  • Weather Map
  • Weather Widgets
  • user-avatar
    Login

    Hourly Weather Elbasan

    Today, 22 May, Wednesday

    Time Temperature Precipitation Wind Pressure Humidity
    00:00 +13°C° 0 mm 1 mps 735 mmHg 82%
    01:00 +13°C° 0 mm 1 mps 735 mmHg 82%
    02:00 +13°C° 0 mm 1 mps 735 mmHg 81%
    03:00 +13°C° 0 mm 1 mps 735 mmHg 80%
    04:00 +13°C° 0 mm 1 mps 735 mmHg 80%
    05:00 +14°C° 0 mm 1 mps 735 mmHg 76%
    06:00 +16°C° 0 mm 1 mps 735 mmHg 71%
    07:00 +17°C° 0 mm 0 mps 735 mmHg 67%
    08:00 +20°C° 0 mm 1 mps 735 mmHg 64%
    09:00 +20°C° 0 mm 2 mps 735 mmHg 61%
    10:00 +21°C° 0 mm 2 mps 736 mmHg 57%
    11:00 +21°C° 0 mm 3 mps 735 mmHg 58%
    12:00 +22°C° 0 mm 3 mps 735 mmHg 58%
    13:00 +22°C° 0 mm 3 mps 735 mmHg 59%
    14:00 +22°C° 0 mm 3 mps 735 mmHg 61%
    15:00 +21°C° 0 mm 3 mps 735 mmHg 63%
    16:00 +21°C° 0 mm 3 mps 734 mmHg 66%
    17:00 +19°C° 0 mm 2 mps 734 mmHg 72%
    18:00 +17°C° 0 mm 2 mps 734 mmHg 79%
    19:00 +16°C° 0 mm 1 mps 734 mmHg 86%
    20:00 +15°C° 0 mm 1 mps 734 mmHg 86%
    21:00 +15°C° 0 mm 1 mps 735 mmHg 87%
    22:00 +14°C° 0 mm 1 mps 735 mmHg 88%
    23:00 +14°C° 0 mm 1 mps 735 mmHg 86%

    Tomorrow, 23 May, Thursday

    Time Temperature Precipitation Wind Pressure Humidity
    00:00 +13°C° 0 mm 1 mps 735 mmHg 84%
    01:00 +13°C° 0 mm 1 mps 735 mmHg 82%
    02:00 +13°C° 0 mm 1 mps 735 mmHg 79%
    03:00 +13°C° 0 mm 1 mps 734 mmHg 76%
    04:00 +13°C° 0 mm 1 mps 734 mmHg 73%
    05:00 +15°C° 0 mm 1 mps 734 mmHg 69%
    06:00 +16°C° 0 mm 1 mps 734 mmHg 65%
    07:00 +19°C° 0 mm 1 mps 734 mmHg 62%
    08:00 +20°C° 0 mm 1 mps 735 mmHg 58%
    09:00 +20°C° 0 mm 2 mps 735 mmHg 55%
    10:00 +23°C° 0 mm 2 mps 735 mmHg 51%
    11:00 +23°C° 0 mm 2 mps 734 mmHg 51%
    12:00 +24°C° 0 mm 3 mps 734 mmHg 51%
    13:00 +24°C° 0 mm 3 mps 734 mmHg 51%
    14:00 +22°C° 0.1 mm 3 mps 733 mmHg 55%
    15:00 +21°C° 0.1 mm 3 mps 733 mmHg 59%
    16:00 +21°C° 0.1 mm 3 mps 733 mmHg 64%
    17:00 +19°C° 0.1 mm 2 mps 733 mmHg 70%
    18:00 +17°C° 0.1 mm 2 mps 733 mmHg 77%
    19:00 +16°C° 0.1 mm 1 mps 733 mmHg 83%
    20:00 +15°C° 0 mm 1 mps 733 mmHg 84%
    21:00 +14°C° 0 mm 0 mps 733 mmHg 84%
    22:00 +14°C° 0 mm 0 mps 733 mmHg 85%
    23:00 +14°C° 0 mm 0 mps 733 mmHg 84%

    Day after tomorrow, 24 May, Friday

    Time Temperature Precipitation Wind Pressure Humidity
    00:00 +13°C° 0 mm 0 mps 733 mmHg 83%
    01:00 +13°C° 0 mm 0 mps 733 mmHg 83%
    02:00 +13°C° 0 mm 0 mps 732 mmHg 84%
    03:00 +13°C° 0 mm 0 mps 732 mmHg 85%
    04:00 +12°C° 0 mm 0 mps 732 mmHg 85%
    05:00 +13°C° 0 mm 0 mps 732 mmHg 82%
    06:00 +14°C° 0 mm 0 mps 732 mmHg 79%
    07:00 +15°C° 0 mm 0 mps 733 mmHg 76%
    08:00 +19°C° 0.1 mm 1 mps 733 mmHg 73%
    09:00 +20°C° 0.1 mm 1 mps 733 mmHg 70%
    10:00 +20°C° 0.1 mm 2 mps 733 mmHg 66%
    11:00 +21°C° 0.8 mm 2 mps 732 mmHg 66%
    12:00 +21°C° 0.8 mm 3 mps 732 mmHg 66%
    13:00 +22°C° 0.8 mm 3 mps 732 mmHg 66%
    14:00 +21°C° 1.1 mm 3 mps 732 mmHg 68%
    15:00 +21°C° 1.1 mm 3 mps 732 mmHg 70%
    16:00 +20°C° 1.1 mm 4 mps 732 mmHg 72%
    17:00 +19°C° 0.2 mm 3 mps 732 mmHg 78%
    18:00 +17°C° 0.2 mm 2 mps 732 mmHg 83%
    19:00 +16°C° 0.2 mm 1 mps 732 mmHg 88%
    20:00 +15°C° 0 mm 1 mps 733 mmHg 90%
    21:00 +15°C° 0 mm 1 mps 733 mmHg 91%
    22:00 +13°C° 0 mm 0 mps 733 mmHg 93%
    23:00 +13°C° 0 mm 0 mps 733 mmHg 92%

    25 May, Saturday

    Time Temperature Precipitation Wind Pressure Humidity
    00:00 +14°C° 0 mm 1 mps 733 mmHg 92%
    01:00 +13°C° 0 mm 1 mps 734 mmHg 91%
    02:00 +13°C° 0 mm 1 mps 734 mmHg 90%
    03:00 +13°C° 0 mm 1 mps 734 mmHg 89%
    04:00 +13°C° 0 mm 1 mps 734 mmHg 88%
    05:00 +15°C° 0 mm 1 mps 734 mmHg 82%
    06:00 +15°C° 0 mm 0 mps 734 mmHg 76%
    07:00 +17°C° 0 mm 0 mps 735 mmHg 70%
    08:00 +20°C° 0 mm 1 mps 735 mmHg 66%
    09:00 +22°C° 0 mm 1 mps 735 mmHg 61%
    10:00 +23°C° 0 mm 2 mps 735 mmHg 57%
    11:00 +24°C° 0 mm 2 mps 735 mmHg 56%
    12:00 +24°C° 0 mm 3 mps 735 mmHg 55%
    13:00 +25°C° 0 mm 3 mps 735 mmHg 55%
    14:00 +24°C° 0 mm 3 mps 735 mmHg 57%
    15:00 +24°C° 0 mm 3 mps 735 mmHg 59%
    16:00 +24°C° 0 mm 3 mps 735 mmHg 61%
    17:00 +21°C° 0 mm 2 mps 735 mmHg 69%
    18:00 +20°C° 0 mm 1 mps 735 mmHg 77%
    19:00 +18°C° 0 mm 1 mps 735 mmHg 85%
    20:00 +18°C° 0 mm 1 mps 735 mmHg 86%
    21:00 +16°C° 0 mm 1 mps 736 mmHg 88%
    22:00 +14°C° 0 mm 0 mps 736 mmHg 89%
    23:00 +15°C° 0 mm 1 mps 736 mmHg 89%

    26 May, Sunday

    Time Temperature Precipitation Wind Pressure Humidity
    00:00 +15°C° 0 mm 1 mps 736 mmHg 88%
    01:00 +15°C° 0 mm 1 mps 736 mmHg 87%
    02:00 +14°C° 0 mm 1 mps 735 mmHg 86%
    03:00 +14°C° 0 mm 1 mps 735 mmHg 84%
    04:00 +14°C° 0 mm 1 mps 735 mmHg 83%
    05:00 +16°C° 0 mm 1 mps 735 mmHg 76%
    06:00 +19°C° 0 mm 1 mps 735 mmHg 69%
    07:00 +21°C° 0 mm 1 mps 735 mmHg 61%
    08:00 +22°C° 0 mm 1 mps 736 mmHg 56%
    09:00 +23°C° 0 mm 2 mps 736 mmHg 51%
    10:00 +25°C° 0 mm 2 mps 736 mmHg 45%
    11:00 +25°C° 0 mm 2 mps 736 mmHg 45%
    12:00 +26°C° 0 mm 3 mps 736 mmHg 45%
    13:00 +26°C° 0 mm 3 mps 735 mmHg 46%
    14:00 +26°C° 0 mm 3 mps 735 mmHg 48%
    15:00 +25°C° 0 mm 3 mps 735 mmHg 51%
    16:00 +25°C° 0 mm 3 mps 735 mmHg 53%
    17:00 +23°C° 0 mm 2 mps 735 mmHg 61%
    18:00 +21°C° 0 mm 1 mps 735 mmHg 69%
    19:00 +19°C° 0 mm 1 mps 735 mmHg 77%
    20:00 +19°C° 0 mm 1 mps 735 mmHg 78%
    21:00 +18°C° 0 mm 1 mps 735 mmHg 78%
    22:00 +18°C° 0 mm 1 mps 735 mmHg 79%
    23:00 +16°C° 0 mm 1 mps 735 mmHg 78%

    27 May, Monday

    Time Temperature Precipitation Wind Pressure Humidity
    00:00 +16°C° 0 mm 1 mps 735 mmHg 77%
    01:00 +16°C° 0 mm 1 mps 735 mmHg 76%
    02:00 +16°C° 0 mm 1 mps 735 mmHg 74%
    03:00 +16°C° 0 mm 2 mps 735 mmHg 72%
    04:00 +16°C° 0 mm 2 mps 735 mmHg 69%
    05:00 +18°C° 0 mm 2 mps 735 mmHg 65%
    06:00 +21°C° 0 mm 1 mps 735 mmHg 61%
    07:00 +23°C° 0 mm 1 mps 735 mmHg 57%
    08:00 +25°C° 0 mm 1 mps 735 mmHg 52%
    09:00 +27°C° 0 mm 1 mps 735 mmHg 46%
    10:00 +27°C° 0 mm 0 mps 735 mmHg 40%
    11:00 +29°C° 0 mm 1 mps 735 mmHg 39%
    12:00 +30°C° 0 mm 1 mps 735 mmHg 39%
    13:00 +31°C° 0 mm 1 mps 735 mmHg 38%
    14:00 +31°C° 0 mm 1 mps 734 mmHg 40%
    15:00 +31°C° 0 mm 1 mps 734 mmHg 42%
    16:00 +30°C° 0 mm 2 mps 734 mmHg 44%
    17:00 +28°C° 0 mm 1 mps 734 mmHg 52%
    18:00 +25°C° 0 mm 1 mps 734 mmHg 60%
    19:00 +23°C° 0 mm 1 mps 734 mmHg 69%
    20:00 +22°C° 0.2 mm 1 mps 734 mmHg 70%
    21:00 +22°C° 0.2 mm 1 mps 734 mmHg 71%
    22:00 +21°C° 0.2 mm 1 mps 735 mmHg 72%
    23:00 +20°C° 0 mm 2 mps 734 mmHg 73%
    Show more